Regional Weather Roundup
Issued by NWS Binghamton, NY

Home | Current Version | Previous Version | Text Only | Print | Product List | Glossary On
Versions: 1 2 3 4 5 6 7 8 9 10 11 12 13 14 15 16 17 18 19 20 21 22 23 24 25 26 27
000
ASUS41 KBGM 061310
RWRBGM

REGIONAL WEATHER ROUNDUP
NATIONAL WEATHER SERVICE BINGHAMTON NY
900 AM EDT FRI MAY 06 2016

Note: "fair" indicates few or no clouds below 12,000 feet with no
significant weather and/or obstructions to visibility.

* = Station(s) that does not report precipitation, such as rain,
snow, etc, also no thunder or fog.

NYZ009-015>018-022>025-036-037-044>046-055>057-062-061400
...Central New York...

CITY           SKY/WX    TMP DP  RH WIND       PRES   REMARKS
Binghamton     CLOUDY    48  41  76 N10       29.76R
Cortland       FAIR      52  41  66 NE12      29.80R
Dansville      SUNNY     52  43  71 NW12      29.85R
Elmira         CLOUDY    53  40  61 NE9       29.79R
Ithaca         CLOUDY    48  43  82 W9        29.81R
Hamilton       SUNNY     55  43  62 N12       29.79R
Hornell        MOSUNNY   52  41  66 NW12      29.86R
Monticello     CLOUDY    46  46 100 N5        29.73F
Norwich        SUNNY     52  39  62 N7        29.78R
Penn Yan       CLOUDY    53  40  61 VRB6      29.82R
Rome           MOSUNNY   56  40  55 NE15G23   29.79R
Sidney         CLOUDY    52  46  82 NE5       29.77R
Syracuse       PTSUNNY   55  41  59 N8        29.78F
$$

PAZ038>040-043-044-047-048-072-061400
...Northeast Pennsylvania...

CITY           SKY/WX    TMP DP  RH WIND       PRES   REMARKS
Hazleton       LGT RAIN  50  45  81 N8        29.72S
Scranton       LGT RAIN  52  44  74 NE13G20   29.71R
$$
&&
KEY
WCI = Wind Chill Index
VSB = Visibility
HX  = Heat Index
$$




USA.gov is the U.S. government's official web portal to all federal, state and local government web resources and services.